Regional Weather Roundup
Issued by NWS

Home | Current Version | Previous Version | Graphics & Text | Print | Product List | Glossary On
Versions: 1 2 3 4 5 6 7 8 9 10 11 12 13 14 15 16 17 18 19 20 21 22 23 24 25 26 27 28 29 30 31 32 33 34 35 36 37 38 39 40 41 42 43 44 45 46 47 48 49 50
000
ASUS43 KMPX 212301
RWRMN
WEATHER ROUNDUP FOR MINNESOTA
NATIONAL WEATHER SERVICE TWIN CITIES/CHANHASSEN MN
600 PM CDT SAT APR 21 2018


NOTE: "FAIR" INDICATES FEW OR NO CLOUDS BELOW 12,000 FEET WITH NO
SIGNIFICANT WEATHER AND/OR OBSTRUCTIONS TO VISIBILITY. N/A MEANS
CURRENT SKY AND/OR WEATHER CONDITIONS ARE NOT AVAILABLE.

MNZ060>063-068>070-220000-
   Twin Cities Metro

CITY           SKY/WX    TMP DP  RH WIND       PRES   REMARKS
TWIN CITIES    FAIR      58  15  18 VRB6      30.33S
ST PAUL        FAIR      59  18  20 SE3       30.33S
CRYSTAL        FAIR      58  15  18 CALM      30.32S
BLAINE         MOSUNNY   61  16  17 CALM      30.32S
LAKEVILLE      FAIR      54  36  50 S8        30.33S
EDEN PRAIRIE   FAIR      57  25  29 S6        30.32S
SOUTH ST PAUL  FAIR      59  22  24 CALM      30.32S
LAKE ELMO      FAIR      57  25  28 CALM      30.34S
$$
MNZ001>005-007-008-013>017-022>024-027-028-220000-
   Northwest Minnesota

CITY           SKY/WX    TMP DP  RH WIND       PRES   REMARKS
BEMIDJI        FAIR      60  31  33 SW8       30.28S
HALLOCK        FAIR      63  43  48 S20       30.23S
ROSEAU         FAIR      61  46  59 SW10G18   30.26S
WARROAD        FAIR      61  45  55 SW10      30.26S
THIEF RVR FALL FAIR      58  41  53 SW12      30.28S
CROOKSTON      FAIR      59  43  55 SW9       30.27F
FOSSTON        FAIR      61  34  36 S12       30.29S
DETROIT LAKES  FAIR      57  34  41 S5        30.30S
MOORHEAD       FAIR      61  39  44 S9        30.28F
PARK RAPIDS    FAIR      58  30  34 CALM      30.28F
MAHNOMEN       FAIR      59  33  36 S10       30.28F
$$
MNZ006-009>011-018-025>026-220000-
   North Central Minnesota

CITY           SKY/WX    TMP DP  RH WIND       PRES   REMARKS
BAUDETTE       FAIR      60  30  32 S10       30.26S
FLAG ISLAND    FAIR      52  28  40 SE6       30.24F
INTL FALLS     FAIR      61  27  27 SE7       30.26F
WASKISH        FAIR      57  32  38 W6        30.29S
BIG FORK       FAIR      57  27  30 S5        30.30S
LONGVILLE      FAIR      57  27  30 SW7       30.30F
GRAND RAPIDS   FAIR      56  22  26 SW3       30.32S
CRANE LAKE     FAIR      59  16  18 CALM      30.30S
ORR            FAIR      59  16  18 S5        30.27S
COOK           FAIR      59  21  23 SE3       30.29F
WALKER         FAIR      56  29  35 SE3       30.29F
$$
MNZ012-019>021-037-220000-
   Northeast Minnesota

CITY           SKY/WX    TMP DP  RH WIND       PRES   REMARKS
DULUTH         FAIR      56  19  23 VRB3      30.32S
ELY            FAIR      57  18  21 W6        30.29S
HIBBING        FAIR      57  21  24 SE6       30.29F
EVELETH        FAIR      59  19  21 SW5       30.31S
DULUTH HARBOR  FAIR      46  30  53 E10       30.33F
TWO HARBORS    FAIR      63  23  22 SE6       30.31S
SILVER BAY     FAIR      55  10  16 S5        30.31F
GRAND MARAIS     N/A     40  32  73 SW3       30.34S
G MARAIS ARPRT FAIR      52  12  20 S6        30.34S
$$
MNZ029>031-032-039>041-046>048-054>057-064-220000-
   West Central Minnesota

CITY           SKY/WX    TMP DP  RH WIND       PRES   REMARKS
FERGUS FALLS   FAIR      57  37  47 SW9       30.27S
WHEATON        SUNNY     57  37  47 S9        30.31F
MORRIS         SUNNY     55  37  50 SW10      30.31S
ALEXANDRIA     FAIR      58  32  37 S7        30.31S
ELBOW LAKE     FAIR      56  36  46 S9        30.31S
WADENA         FAIR      57  32  38 SW3       30.29F
GLENWOOD       FAIR      55  32  41 SW6       30.32S
APPLETON       SUNNY     55  32  41 S6        30.32S
BENSON         SUNNY     55  37  50 W8        30.33S
ORTONVILLE     SUNNY     55  32  41 S10       30.30F
MADISON        CLOUDY    54  41  62 S8        30.33R
WILLMAR        FAIR      55  36  47 S3        30.35S
$$
MNZ033>034-036-042>043-049>051-058-059-220000-
   Central Minnesota

CITY           SKY/WX    TMP DP  RH WIND       PRES   REMARKS
ST CLOUD       FAIR      57  29  34 SE5       30.32S
SAUK CENTRE    FAIR      56  33  41 S6        30.31S
PAYNESVILLE    FAIR      56  33  41 SE6       30.33S
AITKIN         FAIR      54  16  22 SE5       30.31S
PINE RIVER     FAIR      55  30  38 CALM      30.33S
BRAINERD       FAIR      57  28  33 SE6       30.31F
STAPLES        FAIR      55  28  35 CALM      30.30F
LONG PRAIRIE   FAIR      55  32  41 CALM      30.31S
LITTLE FALLS   FAIR      55  21  26 SW6       30.32F
LITCHFIELD     FAIR      55  34  44 CALM      30.34R
BUFFALO        FAIR      55  24  29 CALM      30.34S
MAPLE LAKE     FAIR      56  32  40 CALM      30.34S
HUTCHINSON     FAIR      55  33  44 SE5       30.35S
$$
MNZ037-044-045-052-053-220000-
   East Central Minnesota

CITY           SKY/WX    TMP DP  RH WIND       PRES   REMARKS
PRINCETON      FAIR      59  25  27 CALM      30.32F
MORA           FAIR      54  21  28 CALM      30.34F
CAMBRIDGE      FAIR      59  34  38 CALM      30.33S
RUSH CITY      FAIR      56  21  25 NW3       30.32F
MOOSE LAKE     FAIR      57  23  26 CALM      30.31S
HINCKLEY       FAIR      55  18  22 CALM      30.32F
CLOQUET        FAIR      55  10  16 S6        30.32S
MCGREGOR       FAIR      55  12  18 SW7       30.32F
$$
MNZ071>073-080-081-089-090-097-098-220000-
   Southwest Minnesota

CITY           SKY/WX    TMP DP  RH WIND       PRES   REMARKS
MONTEVIDEO     SUNNY     54  36  50 SW9       30.33S
GRANITE FALLS  CLOUDY    51  39  64 S7        30.35S
CANBY          CLOUDY    49  37  64 E5        30.33F
MARSHALL       CLOUDY    45  30  55 SE5       30.33S
REDWOOD FALLS  CLOUDY    48  36  63 S3        30.33S
OLIVIA         CLOUDY    54  36  50 S8        30.33S
PIPESTONE      CLOUDY   N/A N/A N/A SE8       30.30F
WINDOM         CLOUDY    45  27  49 NE5       30.32F
WORTHINGTON    CLOUDY    45  36  70 NE6       30.31F
JACKSON        CLOUDY    39  34  81 NE7       30.32F
TRACY          CLOUDY    45  33  63 SE6       30.33S
SLAYTON        CLOUDY    42  33  69 E6        30.33S
$$
MNZ065>067-074>077-082>085-091>093-220000-
   South Central Minnesota

CITY           SKY/WX    TMP DP  RH WIND       PRES   REMARKS
MANKATO        CLOUDY    50  34  54 SE6       30.34F
NEW ULM        CLOUDY    48  30  49 CALM      30.33S
ST JAMES       CLOUDY    43  37  81 CALM      30.35S
FAIRMONT       CLOUDY    45  34  65 NE5       30.33F
GLENCOE        FAIR      55  30  38 CALM      30.33S
FARIBAULT      FAIR      54  34  47 CALM      30.35S
OWATONNA       PTSUNNY   52  36  54 CALM      30.34S
WASECA         CLOUDY    50  39  66 CALM      30.35F
ALBERT LEA     CLOUDY    46  34  61 E3        30.33F
$$
MNZ078>079-086>088-094>096-220000-
   Southeast Minnesota

CITY           SKY/WX    TMP DP  RH WIND       PRES   REMARKS
ROCHESTER      CLOUDY    50  37  61 CALM      30.35S
RED WING       FAIR      57  25  28 S8        30.33S
STANTON        FAIR      55  36  48 S6        30.33S
DODGE CENTER   PTSUNNY   50  37  62 CALM      30.35S
WINONA         CLOUDY    55  32  41 SW3       30.33S
AUSTIN         CLOUDY    48  36  61 NE3       30.34S
PRESTON        CLOUDY    52  32  46 E3        30.34F
$$
ABBREVIATIONS USED IN REMARKS
   TC - TEMPERATURES IN CELSIUS
  WCI - WIND CHILL INDEX
   HX - HEAT INDEX
  VSB - VISIBILITY
$$




USA.gov is the U.S. government's official web portal to all federal, state and local government web resources and services.